Year,Month,Day,Hour,Minute,Value (Times are PST for temperature in C)
2014,11,12,00,00,0.40
2014,11,12,00,01,0.40
2014,11,12,00,02,0.40
2014,11,12,00,03,0.40
2014,11,12,00,04,0.40
2014,11,12,00,05,0.50
2014,11,12,00,06,0.50
2014,11,12,00,07,0.50
2014,11,12,00,08,0.50
2014,11,12,00,09,0.50
2014,11,12,00,10,0.50
2014,11,12,00,11,0.50
2014,11,12,00,12,0.50
2014,11,12,00,13,0.40
2014,11,12,00,14,0.40
2014,11,12,00,15,0.40
2014,11,12,00,16,0.40
2014,11,12,00,17,0.30
2014,11,12,00,18,0.30
2014,11,12,00,19,0.40
2014,11,12,00,20,0.40
2014,11,12,00,21,0.40
2014,11,12,00,22,0.40
2014,11,12,00,23,0.40
2014,11,12,00,24,0.40
2014,11,12,00,25,0.40
2014,11,12,00,26,0.40
2014,11,12,00,27,0.40
2014,11,12,00,28,0.40
2014,11,12,00,29,0.40
2014,11,12,00,30,0.40
2014,11,12,00,31,0.40
2014,11,12,00,32,0.40
2014,11,12,00,33,0.40
2014,11,12,00,34,0.50
2014,11,12,00,35,0.50
2014,11,12,00,36,0.40
2014,11,12,00,37,0.40
2014,11,12,00,38,0.40
2014,11,12,00,39,0.40
2014,11,12,00,40,0.40
2014,11,12,00,41,0.40
2014,11,12,00,42,0.40
2014,11,12,00,43,0.30
2014,11,12,00,44,0.20
2014,11,12,00,45,0.20
2014,11,12,00,46,0.20
2014,11,12,00,47,0.10
2014,11,12,00,48,0.10
2014,11,12,00,49,0.10
2014,11,12,00,50,0.10
2014,11,12,00,51,0.10
2014,11,12,00,52,0.10
2014,11,12,00,53,0.10
2014,11,12,00,54,0.10
2014,11,12,00,55,0.10
2014,11,12,00,56,0.10
2014,11,12,00,57,0.10
2014,11,12,00,58,0.10
2014,11,12,00,59,0.10
2014,11,12,01,00,-0.10
2014,11,12,01,01,-0.10
2014,11,12,01,02,-0.10
2014,11,12,01,03,-0.10
2014,11,12,01,04,-0.10
2014,11,12,01,05,-0.20
2014,11,12,01,06,-0.20
2014,11,12,01,07,-0.20
2014,11,12,01,08,-0.30
2014,11,12,01,09,-0.30
2014,11,12,01,10,-0.30
2014,11,12,01,11,-0.30
2014,11,12,01,12,-0.30
2014,11,12,01,13,-0.30
2014,11,12,01,14,-0.30
2014,11,12,01,15,-0.30
2014,11,12,01,16,-0.40
2014,11,12,01,17,-0.40
2014,11,12,01,18,-0.40
2014,11,12,01,19,-0.40
2014,11,12,01,20,-0.40
2014,11,12,01,21,-0.40
2014,11,12,01,22,-0.40
2014,11,12,01,23,-0.40
2014,11,12,01,24,-0.40
2014,11,12,01,25,-0.40
2014,11,12,01,26,-0.40
2014,11,12,01,27,-0.40
2014,11,12,01,28,-0.60
2014,11,12,01,29,-0.60
2014,11,12,01,30,-0.60
2014,11,12,01,31,-0.60
2014,11,12,01,32,-0.60
2014,11,12,01,33,-0.60
2014,11,12,01,34,-0.60
2014,11,12,01,35,-0.70
2014,11,12,01,36,-0.70
2014,11,12,01,37,-0.70
2014,11,12,01,38,-0.70
2014,11,12,01,39,-0.70
2014,11,12,01,40,-0.70
2014,11,12,01,41,-0.70
2014,11,12,01,42,-0.70
2014,11,12,01,43,-0.70
2014,11,12,01,44,-0.70
2014,11,12,01,45,-0.80
2014,11,12,01,46,-0.80
2014,11,12,01,47,-0.80
2014,11,12,01,48,-0.80
2014,11,12,01,49,-0.90
2014,11,12,01,50,-0.90
2014,11,12,01,51,-0.90
2014,11,12,01,52,-0.90
2014,11,12,01,53,-0.90
2014,11,12,01,54,-0.90
2014,11,12,01,55,-0.90
2014,11,12,01,56,-0.90
2014,11,12,01,57,-0.90
2014,11,12,01,58,-0.90
2014,11,12,01,59,-0.90
2014,11,12,02,00,-0.90
2014,11,12,02,01,-0.90
2014,11,12,02,02,-0.90
2014,11,12,02,03,-0.80
2014,11,12,02,04,-0.70
2014,11,12,02,05,-0.60
2014,11,12,02,06,-0.60
2014,11,12,02,07,-0.40
2014,11,12,02,08,-0.40
2014,11,12,02,09,-0.40
2014,11,12,02,10,-0.40
2014,11,12,02,11,-0.40
2014,11,12,02,12,-0.60
2014,11,12,02,13,-0.60
2014,11,12,02,14,-0.60
2014,11,12,02,15,-0.70
2014,11,12,02,16,-0.70
2014,11,12,02,17,-0.70
2014,11,12,02,18,-0.70
2014,11,12,02,19,-0.70
2014,11,12,02,20,-0.60
2014,11,12,02,21,-0.60
2014,11,12,02,22,-0.60
2014,11,12,02,23,-0.60
2014,11,12,02,24,-0.60
2014,11,12,02,25,-0.60
2014,11,12,02,26,-0.60
2014,11,12,02,27,-0.60
2014,11,12,02,28,-0.60
2014,11,12,02,29,-0.60
2014,11,12,02,30,-0.60
2014,11,12,02,31,-0.60
2014,11,12,02,32,-0.60
2014,11,12,02,33,-0.60
2014,11,12,02,34,-0.60
2014,11,12,02,35,-0.60
2014,11,12,02,36,-0.60
2014,11,12,02,37,-0.60
2014,11,12,02,38,-0.60
2014,11,12,02,39,-0.60
2014,11,12,02,40,-0.70
2014,11,12,02,41,-0.70
2014,11,12,02,42,-0.70
2014,11,12,02,43,-0.70
2014,11,12,02,44,-0.70
2014,11,12,02,45,-0.70
2014,11,12,02,46,-0.80
2014,11,12,02,47,-0.80
2014,11,12,02,48,-0.80
2014,11,12,02,49,-0.90
2014,11,12,02,50,-0.90
2014,11,12,02,51,-0.90
2014,11,12,02,52,-0.90
2014,11,12,02,53,-0.90
2014,11,12,02,54,-0.90
2014,11,12,02,55,-0.90
2014,11,12,02,56,-0.90
2014,11,12,02,57,-0.90
2014,11,12,02,58,-0.90
2014,11,12,02,59,-0.90
2014,11,12,03,00,-0.90
2014,11,12,03,01,-0.90
2014,11,12,03,02,-0.90
2014,11,12,03,03,-0.90
2014,11,12,03,04,-0.90
2014,11,12,03,05,-0.90
2014,11,12,03,06,-0.90
2014,11,12,03,07,-0.90
2014,11,12,03,08,-0.90
2014,11,12,03,09,-0.90
2014,11,12,03,10,-0.90
2014,11,12,03,11,-1.10
2014,11,12,03,12,-1.10
2014,11,12,03,13,-1.10
2014,11,12,03,14,-1.10
2014,11,12,03,15,-1.10
2014,11,12,03,16,-1.10
2014,11,12,03,17,-1.10
2014,11,12,03,18,-1.10
2014,11,12,03,19,-1.10
2014,11,12,03,20,-1.10
2014,11,12,03,21,-1.20
2014,11,12,03,22,-1.10
2014,11,12,03,23,-1.10
2014,11,12,03,24,-0.90
2014,11,12,03,25,-0.90
2014,11,12,03,26,-0.90
2014,11,12,03,27,-0.90
2014,11,12,03,28,-0.90
2014,11,12,03,29,-0.90
2014,11,12,03,30,-0.90
2014,11,12,03,31,-0.90
2014,11,12,03,32,-0.90
2014,11,12,03,33,-0.90
2014,11,12,03,34,-0.90
2014,11,12,03,35,-0.90
2014,11,12,03,36,-0.90
2014,11,12,03,37,-0.90
2014,11,12,03,38,-0.90
2014,11,12,03,39,-0.90
2014,11,12,03,40,-0.90
2014,11,12,03,41,-0.90
2014,11,12,03,42,-0.90
2014,11,12,03,43,-0.90
2014,11,12,03,44,-0.90
2014,11,12,03,45,-0.90
2014,11,12,03,46,-1.10
2014,11,12,03,47,-1.10
2014,11,12,03,48,-1.10
2014,11,12,03,49,-1.10
2014,11,12,03,50,-1.10
2014,11,12,03,51,-1.10
2014,11,12,03,52,-1.10
2014,11,12,03,53,-1.10
2014,11,12,03,54,-1.10
2014,11,12,03,55,-1.10
2014,11,12,03,56,-1.10
2014,11,12,03,57,-1.10
2014,11,12,03,58,-1.10
2014,11,12,03,59,-1.10
2014,11,12,04,00,-1.10
2014,11,12,04,01,-1.10
2014,11,12,04,02,-1.10
2014,11,12,04,03,-1.10
2014,11,12,04,04,-1.10
2014,11,12,04,05,-1.10
2014,11,12,04,06,-1.10
2014,11,12,04,07,-0.90
2014,11,12,04,08,-0.90
2014,11,12,04,09,-0.90
2014,11,12,04,10,-0.90
2014,11,12,04,11,-0.90
2014,11,12,04,12,-0.90
2014,11,12,04,13,-0.90
2014,11,12,04,14,-0.90
2014,11,12,04,15,-0.90
2014,11,12,04,16,-1.10
2014,11,12,04,17,-1.10
2014,11,12,04,18,-1.10
2014,11,12,04,19,-1.10
2014,11,12,04,20,-1.10
2014,11,12,04,21,-1.10
2014,11,12,04,22,-1.10
2014,11,12,04,23,-0.90
2014,11,12,04,24,-0.90
2014,11,12,04,25,-0.90
2014,11,12,04,26,-0.90
2014,11,12,04,27,-0.90
2014,11,12,04,28,-0.90
2014,11,12,04,29,-0.90
2014,11,12,04,30,-1.10
2014,11,12,04,31,-1.10
2014,11,12,04,32,-1.10
2014,11,12,04,33,-1.10
2014,11,12,04,34,-1.10
2014,11,12,04,35,-1.10
2014,11,12,04,36,-0.90
2014,11,12,04,37,-0.90
2014,11,12,04,38,-0.90
2014,11,12,04,39,-0.90
2014,11,12,04,40,-0.90
2014,11,12,04,41,-0.90
2014,11,12,04,42,-0.90
2014,11,12,04,43,-0.90
2014,11,12,04,44,-1.10
2014,11,12,04,45,-1.10
2014,11,12,04,46,-1.10
2014,11,12,04,47,-1.10
2014,11,12,04,48,-1.10
2014,11,12,04,49,-1.10
2014,11,12,04,50,-1.10
2014,11,12,04,51,-1.10
2014,11,12,04,52,-1.10
2014,11,12,04,53,-1.10
2014,11,12,04,54,-1.10
2014,11,12,04,55,-1.10
2014,11,12,04,56,-1.10
2014,11,12,04,57,-1.10
2014,11,12,04,58,-1.10
2014,11,12,04,59,-1.20
2014,11,12,05,00,-1.20
2014,11,12,05,01,-1.30
2014,11,12,05,02,-1.30
2014,11,12,05,03,-1.40
2014,11,12,05,04,-1.40
2014,11,12,05,05,-1.40
2014,11,12,05,06,-1.40
2014,11,12,05,07,-1.30
2014,11,12,05,08,-1.30
2014,11,12,05,09,-1.30
2014,11,12,05,10,-1.30
2014,11,12,05,11,-1.30
2014,11,12,05,12,-1.30
2014,11,12,05,13,-1.30
2014,11,12,05,14,-1.30
2014,11,12,05,15,-1.40
2014,11,12,05,16,-1.40
2014,11,12,05,17,-1.40
2014,11,12,05,18,-1.40
2014,11,12,05,19,-1.40
2014,11,12,05,20,-1.40
2014,11,12,05,21,-1.40
2014,11,12,05,22,-1.40
2014,11,12,05,23,-1.40
2014,11,12,05,24,-1.40
2014,11,12,05,25,-1.40
2014,11,12,05,26,-1.40
2014,11,12,05,27,-1.40
2014,11,12,05,28,-1.40
2014,11,12,05,29,-1.40
2014,11,12,05,30,-1.40
2014,11,12,05,31,-1.40
2014,11,12,05,32,-1.40
2014,11,12,05,33,-1.40
2014,11,12,05,34,-1.40
2014,11,12,05,35,-1.40
2014,11,12,05,36,-1.40
2014,11,12,05,37,-1.40
2014,11,12,05,38,-1.40
2014,11,12,05,39,-1.40
2014,11,12,05,40,-1.40
2014,11,12,05,41,-1.40
2014,11,12,05,42,-1.40
2014,11,12,05,43,-1.40
2014,11,12,05,44,-1.40
2014,11,12,05,45,-1.40
2014,11,12,05,46,-1.40
2014,11,12,05,47,-1.40
2014,11,12,05,48,-1.40
2014,11,12,05,49,-1.40
2014,11,12,05,50,-1.40
2014,11,12,05,51,-1.40
2014,11,12,05,52,-1.40
2014,11,12,05,53,-1.40
2014,11,12,05,54,-1.40
2014,11,12,05,55,-1.40
2014,11,12,05,56,-1.40
2014,11,12,05,57,-1.40
2014,11,12,05,58,-1.40
2014,11,12,05,59,-1.40
2014,11,12,06,00,-1.40
2014,11,12,06,01,-1.40
2014,11,12,06,02,-1.40
2014,11,12,06,03,-1.40
2014,11,12,06,04,-1.40
2014,11,12,06,05,-1.50
2014,11,12,06,06,-1.50
2014,11,12,06,07,-1.50
2014,11,12,06,08,-1.60
2014,11,12,06,09,-1.60
2014,11,12,06,10,-1.60
2014,11,12,06,11,-1.60
2014,11,12,06,12,-1.60
2014,11,12,06,13,-1.60
2014,11,12,06,14,-1.60
2014,11,12,06,15,-1.60
2014,11,12,06,16,-1.70
2014,11,12,06,17,-1.70
2014,11,12,06,18,-1.70
2014,11,12,06,19,-1.70
2014,11,12,06,20,-1.70
2014,11,12,06,21,-1.70
2014,11,12,06,22,-1.60
2014,11,12,06,23,-1.60
2014,11,12,06,24,-1.50
2014,11,12,06,25,-1.50
2014,11,12,06,26,-1.50
2014,11,12,06,27,-1.50
2014,11,12,06,28,-1.50
2014,11,12,06,29,-1.50
2014,11,12,06,30,-1.40
2014,11,12,06,31,-1.40
2014,11,12,06,32,-1.40
2014,11,12,06,33,-1.40
2014,11,12,06,34,-1.40
2014,11,12,06,35,-1.40
2014,11,12,06,36,-1.40
2014,11,12,06,37,-1.40
2014,11,12,06,38,-1.50
2014,11,12,06,39,-1.50
2014,11,12,06,40,-1.50
2014,11,12,06,41,-1.50
2014,11,12,06,42,-1.50
2014,11,12,06,43,-1.50
2014,11,12,06,44,-1.50
2014,11,12,06,45,-1.50
2014,11,12,06,46,-1.40
2014,11,12,06,47,-1.40
2014,11,12,06,48,-1.40
2014,11,12,06,49,-1.40
2014,11,12,06,50,-1.40
2014,11,12,06,51,-1.40
2014,11,12,06,52,-1.40
2014,11,12,06,53,-1.40
2014,11,12,06,54,-1.40
2014,11,12,06,55,-1.40
2014,11,12,06,56,-1.40
2014,11,12,06,57,-1.40
2014,11,12,06,58,-1.50
2014,11,12,06,59,-1.50
2014,11,12,07,00,-1.50
2014,11,12,07,01,-1.60
2014,11,12,07,02,-1.60
2014,11,12,07,03,-1.60
2014,11,12,07,04,-1.70
2014,11,12,07,05,-1.70
2014,11,12,07,06,-1.70
2014,11,12,07,07,-1.70
2014,11,12,07,08,-1.70
2014,11,12,07,09,-1.70
2014,11,12,07,10,-1.70
2014,11,12,07,11,-1.80
2014,11,12,07,12,-1.80
2014,11,12,07,13,-1.80
2014,11,12,07,14,-1.80
2014,11,12,07,15,-1.80
2014,11,12,07,16,-1.80
2014,11,12,07,17,-1.90
2014,11,12,07,18,-1.90
2014,11,12,07,19,-1.90
2014,11,12,07,20,-2.00
2014,11,12,07,21,-2.00
2014,11,12,07,22,-2.00
2014,11,12,07,23,-2.00
2014,11,12,07,24,-2.10
2014,11,12,07,25,-2.10
2014,11,12,07,26,-2.10
2014,11,12,07,27,-2.10
2014,11,12,07,28,-2.00
2014,11,12,07,29,-2.00
2014,11,12,07,30,-2.00
2014,11,12,07,31,-1.90
2014,11,12,07,32,-1.90
2014,11,12,07,33,-1.80
2014,11,12,07,34,-1.80
2014,11,12,07,35,-1.80
2014,11,12,07,36,-1.80
2014,11,12,07,37,-1.80
2014,11,12,07,38,-1.80
2014,11,12,07,39,-1.80
2014,11,12,07,40,-1.80
2014,11,12,07,41,-1.80
2014,11,12,07,42,-1.80
2014,11,12,07,43,-1.80
2014,11,12,07,44,-1.80
2014,11,12,07,45,-1.80
2014,11,12,07,46,-1.90
2014,11,12,07,47,-1.90
2014,11,12,07,48,-1.90
2014,11,12,07,49,-1.90
2014,11,12,07,50,-1.90
2014,11,12,07,51,-2.00
2014,11,12,07,52,-2.00
2014,11,12,07,53,-2.00
2014,11,12,07,54,-2.00
2014,11,12,07,55,-2.00
2014,11,12,07,56,-2.00
2014,11,12,07,57,-2.00
2014,11,12,07,58,-2.00
2014,11,12,07,59,-2.00
2014,11,12,08,00,-2.00
2014,11,12,08,01,-1.90
2014,11,12,08,02,-1.80
2014,11,12,08,03,-1.80
2014,11,12,08,04,-1.70
2014,11,12,08,05,-1.70
2014,11,12,08,06,-1.60
2014,11,12,08,07,-1.60
2014,11,12,08,08,-1.60
2014,11,12,08,09,-1.60
2014,11,12,08,10,-1.60
2014,11,12,08,11,-1.60
2014,11,12,08,12,-1.60
2014,11,12,08,13,-1.60
2014,11,12,08,14,-1.60
2014,11,12,08,15,-1.60
2014,11,12,08,16,-1.60
2014,11,12,08,17,-1.70
2014,11,12,08,18,-1.70
2014,11,12,08,19,-1.70
2014,11,12,08,20,-1.70
2014,11,12,08,21,-1.70
2014,11,12,08,22,-1.70
2014,11,12,08,23,-1.70
2014,11,12,08,24,-1.70
2014,11,12,08,25,-1.60
2014,11,12,08,26,-1.60
2014,11,12,08,27,-1.60
2014,11,12,08,28,-1.70
2014,11,12,08,29,-1.60
2014,11,12,08,30,-1.60
2014,11,12,08,31,-1.60
2014,11,12,08,32,-1.60
2014,11,12,08,33,-1.60
2014,11,12,08,34,-1.60
2014,11,12,08,35,-1.60
2014,11,12,08,36,-1.70
2014,11,12,08,37,-1.70
2014,11,12,08,38,-1.70
2014,11,12,08,39,-1.80
2014,11,12,08,40,-1.80
2014,11,12,08,41,-1.80
2014,11,12,08,42,-1.80
2014,11,12,08,43,-1.80
2014,11,12,08,44,-1.70
2014,11,12,08,45,-1.70
2014,11,12,08,46,-1.60
2014,11,12,08,47,-1.60
2014,11,12,08,48,-1.50
2014,11,12,08,49,-1.50
2014,11,12,08,50,-1.50
2014,11,12,08,51,-1.40
2014,11,12,08,52,-1.40
2014,11,12,08,53,-1.40
2014,11,12,08,54,-1.40
2014,11,12,08,55,-1.40
2014,11,12,08,56,-1.40
2014,11,12,08,57,-1.40
2014,11,12,08,58,-1.30
2014,11,12,08,59,-1.20
2014,11,12,09,00,-1.20
2014,11,12,09,01,-1.10
2014,11,12,09,02,-1.10
2014,11,12,09,03,-1.10
2014,11,12,09,04,-1.10
2014,11,12,09,05,-1.10
2014,11,12,09,06,-1.10
2014,11,12,09,07,-1.10
2014,11,12,09,08,-0.90
2014,11,12,09,09,-0.80
2014,11,12,09,10,-0.70
2014,11,12,09,11,-0.60
2014,11,12,09,12,-0.40
2014,11,12,09,13,-0.40
2014,11,12,09,14,-0.30
2014,11,12,09,15,-0.20
2014,11,12,09,16,-0.20
2014,11,12,09,17,-0.10
2014,11,12,09,18,-0.10
2014,11,12,09,19,0.10
2014,11,12,09,20,0.10
2014,11,12,09,21,0.20
2014,11,12,09,22,0.20
2014,11,12,09,23,0.20
2014,11,12,09,24,0.20
2014,11,12,09,25,0.20
2014,11,12,09,26,0.20
2014,11,12,09,27,0.30
2014,11,12,09,28,0.30
2014,11,12,09,29,0.40
2014,11,12,09,30,0.40
2014,11,12,09,31,0.40
2014,11,12,09,32,0.50
2014,11,12,09,33,0.50
2014,11,12,09,34,0.50
2014,11,12,09,35,0.50
2014,11,12,09,36,0.50
2014,11,12,09,37,0.50
2014,11,12,09,38,0.60
2014,11,12,09,39,0.70
2014,11,12,09,40,0.80
2014,11,12,09,41,0.80
2014,11,12,09,42,0.90
2014,11,12,09,43,0.90
2014,11,12,09,44,1.00
2014,11,12,09,45,1.00
2014,11,12,09,46,0.90
2014,11,12,09,47,0.90
2014,11,12,09,48,0.90
2014,11,12,09,49,0.90
2014,11,12,09,50,0.90
2014,11,12,09,51,0.90
2014,11,12,09,52,1.00
2014,11,12,09,53,1.00
2014,11,12,09,54,1.10
2014,11,12,09,55,1.20
2014,11,12,09,56,1.30
2014,11,12,09,57,1.30
2014,11,12,09,58,1.40
2014,11,12,09,59,1.50
2014,11,12,10,00,1.60
2014,11,12,10,01,1.70
2014,11,12,10,02,1.80
2014,11,12,10,03,1.80
2014,11,12,10,04,1.80
2014,11,12,10,05,1.80
2014,11,12,10,06,1.80
2014,11,12,11,28,6.80
2014,11,12,11,29,6.90
2014,11,12,11,30,6.90
2014,11,12,11,31,6.90
2014,11,12,11,32,6.90
2014,11,12,11,33,6.90
2014,11,12,11,34,6.90
2014,11,12,11,35,6.90
2014,11,12,11,36,6.90
2014,11,12,11,37,6.90
2014,11,12,11,38,7.00
2014,11,12,11,39,7.00
2014,11,12,11,40,7.00
2014,11,12,11,41,7.10
2014,11,12,11,42,7.10
2014,11,12,11,43,7.10
2014,11,12,11,44,7.10
2014,11,12,11,45,7.00
2014,11,12,11,46,7.00
2014,11,12,11,47,7.00
2014,11,12,11,48,7.00
2014,11,12,11,49,7.00
2014,11,12,11,50,7.00
2014,11,12,11,51,7.00
2014,11,12,11,52,6.90
2014,11,12,11,53,7.00
2014,11,12,11,54,7.00
2014,11,12,11,55,7.00
2014,11,12,11,56,7.10
2014,11,12,11,57,7.10
2014,11,12,11,58,7.20
2014,11,12,11,59,7.20
2014,11,12,12,00,7.20
2014,11,12,12,01,7.20
2014,11,12,12,02,7.20
2014,11,12,12,03,7.20
2014,11,12,12,04,7.20
2014,11,12,12,05,7.20
2014,11,12,12,06,7.30
2014,11,12,12,07,7.30
2014,11,12,12,08,7.30
2014,11,12,12,09,7.30
2014,11,12,12,10,7.30
2014,11,12,12,11,7.30
2014,11,12,12,12,7.20
2014,11,12,12,13,7.20
2014,11,12,12,14,7.20
2014,11,12,12,15,7.20
2014,11,12,12,16,7.30
2014,11,12,12,17,7.30
2014,11,12,12,18,7.30
2014,11,12,12,19,7.30
2014,11,12,12,20,7.30
2014,11,12,12,21,7.30
2014,11,12,12,22,7.30
2014,11,12,12,23,7.30
2014,11,12,12,24,7.30
2014,11,12,12,25,7.30
2014,11,12,12,26,7.30
2014,11,12,12,27,7.30
2014,11,12,12,28,7.40
2014,11,12,12,29,7.40
2014,11,12,12,30,7.40
2014,11,12,12,31,7.40
2014,11,12,12,32,7.40
2014,11,12,12,33,7.40
2014,11,12,12,34,7.50
2014,11,12,12,35,7.50
2014,11,12,12,36,7.50
2014,11,12,12,37,7.60
2014,11,12,12,38,7.60
2014,11,12,12,39,7.70
2014,11,12,12,40,7.70
2014,11,12,12,41,7.70
2014,11,12,12,42,7.70
2014,11,12,12,43,7.70
2014,11,12,12,44,7.70
2014,11,12,12,45,7.60
2014,11,12,12,46,7.60
2014,11,12,12,47,7.60
2014,11,12,12,48,7.60
2014,11,12,12,49,7.60
2014,11,12,12,50,7.60
2014,11,12,12,51,7.60
2014,11,12,12,52,7.60
2014,11,12,12,53,7.70
2014,11,12,12,54,7.80
2014,11,12,12,55,7.80
2014,11,12,12,56,7.90
2014,11,12,12,57,8.00
2014,11,12,12,58,8.10
2014,11,12,12,59,8.20
2014,11,12,13,00,8.20
2014,11,12,13,01,8.20
2014,11,12,13,02,8.20
2014,11,12,13,03,8.30
2014,11,12,13,04,8.30
2014,11,12,13,05,8.40
2014,11,12,13,06,8.40
2014,11,12,13,07,8.40
2014,11,12,13,08,8.50
2014,11,12,13,09,8.50
2014,11,12,13,10,8.50
2014,11,12,13,11,8.50
2014,11,12,13,12,8.40
2014,11,12,13,13,8.40
2014,11,12,13,14,8.40
2014,11,12,13,15,8.40
2014,11,12,13,16,8.40
2014,11,12,13,17,8.40
2014,11,12,13,18,8.50
2014,11,12,13,19,8.50
2014,11,12,13,20,8.50
2014,11,12,13,21,8.50
2014,11,12,13,22,8.60
2014,11,12,13,23,8.70
2014,11,12,13,24,8.70
2014,11,12,13,25,8.70
2014,11,12,13,26,8.80
2014,11,12,13,27,8.90
2014,11,12,13,28,8.90
2014,11,12,13,29,8.90
2014,11,12,13,30,8.90
2014,11,12,13,31,8.90
2014,11,12,13,32,9.00
2014,11,12,13,33,9.00
2014,11,12,13,34,9.10
2014,11,12,13,35,9.10
2014,11,12,13,36,9.10
2014,11,12,13,37,9.10
2014,11,12,13,38,9.10
2014,11,12,13,39,9.10
2014,11,12,13,40,9.10
2014,11,12,13,41,9.10
2014,11,12,13,42,9.10
2014,11,12,13,43,9.10
2014,11,12,13,44,9.10
2014,11,12,13,45,9.10
2014,11,12,13,46,9.20
2014,11,12,13,47,9.20
2014,11,12,13,48,9.20
2014,11,12,13,49,9.20
2014,11,12,13,50,9.20
2014,11,12,13,51,9.20
2014,11,12,13,52,9.20
2014,11,12,13,53,9.20
2014,11,12,13,54,9.20
2014,11,12,13,55,9.30
2014,11,12,13,56,9.30
2014,11,12,13,57,9.30
2014,11,12,13,58,9.30
2014,11,12,13,59,9.30
2014,11,12,14,00,9.30
2014,11,12,14,01,9.30
2014,11,12,14,02,9.30
2014,11,12,14,03,9.30
2014,11,12,14,04,9.20
2014,11,12,14,05,9.20
2014,11,12,14,06,9.20
2014,11,12,14,07,9.20
2014,11,12,14,08,9.20
2014,11,12,14,09,9.20
2014,11,12,14,10,9.00
2014,11,12,14,11,9.00
2014,11,12,14,12,9.00
2014,11,12,14,13,8.90
2014,11,12,14,14,8.90
2014,11,12,14,15,8.80
2014,11,12,14,16,8.80
2014,11,12,14,17,8.80
2014,11,12,14,18,8.80
2014,11,12,14,19,8.70
2014,11,12,14,20,8.70
2014,11,12,14,21,8.70
2014,11,12,14,22,8.70
2014,11,12,14,23,8.70
2014,11,12,14,24,8.70
2014,11,12,14,25,8.70
2014,11,12,14,26,8.80
2014,11,12,14,27,8.80
2014,11,12,14,28,8.80
2014,11,12,14,29,8.90
2014,11,12,14,30,8.90
2014,11,12,14,31,8.90
2014,11,12,14,32,8.90
2014,11,12,14,33,8.90
2014,11,12,14,34,8.90
2014,11,12,14,35,8.90
2014,11,12,14,36,8.90
2014,11,12,14,37,8.90
2014,11,12,14,38,8.90
2014,11,12,14,39,8.90
2014,11,12,14,40,8.90
2014,11,12,14,41,8.90
2014,11,12,14,42,9.00
2014,11,12,14,43,9.00
2014,11,12,14,44,9.00
2014,11,12,14,45,9.00
2014,11,12,14,46,9.00
2014,11,12,14,47,9.00
2014,11,12,14,48,9.00
2014,11,12,14,49,9.00
2014,11,12,14,50,9.00
2014,11,12,14,51,9.00
2014,11,12,14,52,9.00
2014,11,12,14,53,9.00
2014,11,12,14,54,9.00
2014,11,12,14,55,9.00
2014,11,12,14,56,9.00
2014,11,12,14,57,8.90
2014,11,12,14,58,8.90
2014,11,12,14,59,8.90
2014,11,12,15,00,8.90
2014,11,12,15,01,8.90
2014,11,12,15,02,8.80
2014,11,12,15,03,8.80
2014,11,12,15,04,8.80
2014,11,12,15,05,8.70
2014,11,12,15,06,8.70
2014,11,12,15,07,8.70
2014,11,12,15,08,8.70
2014,11,12,15,09,8.70
2014,11,12,15,10,8.70
2014,11,12,15,11,8.60
2014,11,12,15,12,8.60
2014,11,12,15,13,8.50
2014,11,12,15,14,8.50
2014,11,12,15,15,8.50
2014,11,12,15,16,8.40
2014,11,12,15,17,8.40
2014,11,12,15,18,8.30
2014,11,12,15,19,8.30
2014,11,12,15,20,8.20
2014,11,12,15,21,8.20
2014,11,12,15,22,8.20
2014,11,12,15,23,8.10
2014,11,12,15,24,8.00
2014,11,12,15,25,8.00
2014,11,12,15,26,7.90
2014,11,12,15,27,7.80
2014,11,12,15,28,7.80
2014,11,12,15,29,7.80
2014,11,12,15,30,7.70
2014,11,12,15,31,7.70
2014,11,12,15,32,7.60
2014,11,12,15,33,7.50
2014,11,12,15,34,7.40
2014,11,12,15,35,7.40
2014,11,12,15,36,7.30
2014,11,12,15,37,7.30
2014,11,12,15,38,7.30
2014,11,12,15,39,7.20
2014,11,12,15,40,7.20
2014,11,12,15,41,7.20
2014,11,12,15,42,7.10
2014,11,12,15,43,7.10
2014,11,12,15,44,7.00
2014,11,12,15,45,7.00
2014,11,12,15,46,7.00
2014,11,12,15,47,6.90
2014,11,12,15,48,6.80
2014,11,12,15,49,6.80
2014,11,12,15,50,6.70
2014,11,12,15,51,6.70
2014,11,12,15,52,6.60
2014,11,12,15,53,6.60
2014,11,12,15,54,6.40
2014,11,12,15,55,6.40
2014,11,12,15,56,6.40
2014,11,12,15,57,6.30
2014,11,12,15,58,6.20
2014,11,12,15,59,6.20
2014,11,12,16,00,6.20
2014,11,12,16,01,6.10
2014,11,12,16,02,6.10
2014,11,12,16,03,6.00
2014,11,12,16,04,6.00
2014,11,12,16,05,5.90
2014,11,12,16,06,5.90
2014,11,12,16,07,5.80
2014,11,12,16,08,5.80
2014,11,12,16,09,5.70
2014,11,12,16,10,5.70
2014,11,12,16,11,5.70
2014,11,12,16,12,5.70
2014,11,12,16,13,5.70
2014,11,12,16,14,5.60
2014,11,12,16,15,5.60
2014,11,12,16,16,5.60
2014,11,12,16,17,5.50
2014,11,12,16,18,5.50
2014,11,12,16,19,5.50
2014,11,12,16,20,5.50
2014,11,12,16,21,5.50
2014,11,12,16,22,5.40
2014,11,12,16,23,5.50
2014,11,12,16,24,5.50
2014,11,12,16,25,5.40
2014,11,12,16,26,5.40
2014,11,12,16,27,5.40
2014,11,12,16,28,5.40
2014,11,12,16,29,5.30
2014,11,12,16,30,5.30
2014,11,12,16,31,5.30
2014,11,12,16,32,5.30
2014,11,12,16,33,5.30
2014,11,12,16,34,5.30
2014,11,12,16,35,5.20
2014,11,12,16,36,5.10
2014,11,12,16,37,5.10
2014,11,12,16,38,5.10
2014,11,12,16,39,5.10
2014,11,12,16,40,4.90
2014,11,12,16,41,4.90
2014,11,12,16,42,4.90
2014,11,12,16,43,4.90
2014,11,12,16,44,4.80
2014,11,12,16,45,4.80
2014,11,12,16,46,4.80
2014,11,12,16,47,4.70
2014,11,12,16,48,4.70
2014,11,12,16,49,4.70
2014,11,12,16,50,4.70
2014,11,12,16,51,4.60
2014,11,12,16,52,4.60
2014,11,12,16,53,4.60
2014,11,12,16,54,4.60
2014,11,12,16,55,4.60
2014,11,12,16,56,4.60
2014,11,12,16,57,4.60
2014,11,12,16,58,4.60
2014,11,12,16,59,4.50
2014,11,12,17,00,4.50
2014,11,12,17,01,4.40
2014,11,12,17,02,4.40
2014,11,12,17,03,4.40
2014,11,12,17,04,4.40
2014,11,12,17,05,4.30
2014,11,12,17,06,4.30
2014,11,12,17,07,4.30
2014,11,12,17,08,4.30
2014,11,12,17,09,4.30
2014,11,12,17,10,4.30
2014,11,12,17,11,4.20
2014,11,12,17,12,4.20
2014,11,12,17,13,4.20
2014,11,12,17,14,4.20
2014,11,12,17,15,4.20
2014,11,12,17,16,4.20
2014,11,12,17,17,4.20
2014,11,12,17,18,4.20
2014,11,12,17,19,4.20
2014,11,12,17,20,4.20
2014,11,12,17,21,4.10
2014,11,12,17,22,4.10
2014,11,12,17,23,4.10
2014,11,12,17,24,4.10
2014,11,12,17,25,4.00
2014,11,12,17,26,4.00
2014,11,12,17,27,4.00
2014,11,12,17,28,3.90
2014,11,12,17,29,3.90
2014,11,12,17,30,3.90
2014,11,12,17,31,3.80
2014,11,12,17,32,3.80
2014,11,12,17,33,3.80
2014,11,12,17,34,3.80
2014,11,12,17,35,3.80
2014,11,12,17,36,3.80
2014,11,12,17,37,3.80
2014,11,12,17,38,3.80
2014,11,12,17,39,3.80
2014,11,12,17,40,3.80
2014,11,12,17,41,3.70
2014,11,12,17,42,3.70
2014,11,12,17,43,3.70
2014,11,12,17,44,3.60
2014,11,12,17,45,3.60
2014,11,12,17,46,3.60
2014,11,12,17,47,3.60
2014,11,12,17,48,3.50
2014,11,12,17,49,3.50
2014,11,12,17,50,3.50
2014,11,12,17,51,3.60
2014,11,12,17,52,3.60
2014,11,12,17,53,3.60
2014,11,12,17,54,3.50
2014,11,12,17,55,3.50
2014,11,12,17,56,3.50
2014,11,12,17,57,3.50
2014,11,12,17,58,3.40
2014,11,12,17,59,3.40
2014,11,12,18,00,3.40
2014,11,12,18,01,3.40
2014,11,12,18,02,3.30
2014,11,12,18,03,3.30
2014,11,12,18,04,3.30
2014,11,12,18,05,3.30
2014,11,12,18,06,3.30
2014,11,12,18,07,3.30
2014,11,12,18,08,3.30
2014,11,12,18,09,3.30
2014,11,12,18,10,3.30
2014,11,12,18,11,3.30
2014,11,12,18,12,3.30
2014,11,12,18,13,3.30
2014,11,12,18,14,3.30
2014,11,12,18,15,3.30
2014,11,12,18,16,3.30
2014,11,12,18,17,3.30
2014,11,12,18,18,3.30
2014,11,12,18,19,3.30
2014,11,12,18,20,3.30
2014,11,12,18,21,3.30
2014,11,12,18,22,3.30
2014,11,12,18,23,3.30
2014,11,12,18,24,3.30
2014,11,12,18,25,3.30
2014,11,12,18,26,3.30
2014,11,12,18,27,3.30
2014,11,12,18,28,3.30
2014,11,12,18,29,3.30
2014,11,12,18,30,3.30
2014,11,12,18,31,3.30
2014,11,12,18,32,3.30
2014,11,12,18,33,3.30
2014,11,12,18,34,3.30
2014,11,12,18,35,3.30
2014,11,12,18,36,3.30
2014,11,12,18,37,3.30
2014,11,12,18,38,3.20
2014,11,12,18,39,3.20
2014,11,12,18,40,3.20
2014,11,12,18,41,3.20
2014,11,12,18,42,3.10
2014,11,12,18,43,3.10
2014,11,12,18,44,3.10
2014,11,12,18,45,3.10
2014,11,12,18,46,3.10
2014,11,12,18,47,3.10
2014,11,12,18,48,3.10
2014,11,12,18,49,2.90
2014,11,12,18,50,2.90
2014,11,12,18,51,2.90
2014,11,12,18,52,2.90
2014,11,12,18,53,2.90
2014,11,12,18,54,2.90
2014,11,12,18,55,2.90
2014,11,12,18,56,2.90
2014,11,12,18,57,2.80
2014,11,12,18,58,2.80
2014,11,12,18,59,2.80
2014,11,12,19,00,2.80
2014,11,12,19,01,2.80
2014,11,12,19,02,2.80
2014,11,12,19,03,2.80
2014,11,12,19,04,2.80
2014,11,12,19,05,2.80